Location: Linz
(48.3300°N, 14.3000°E)
Time: 10:09:40
(UTC+01:00)

Envisat - Pass Details

Date: 19 November 2017
Orbit: 764 x 766 km, 98.2° (Epoch: 24 November)

Event Time Altitude Azimuth Distance (km) Brightness Sun altitude
Exits shadow 18:09:40 12° 24° (NNE) 2,153 5.0 -18.0°
Drops below altitude 10° 18:10:20 10° 17° (NNE) 2,313 5.2 -18.1°
Sets 18:13:21 0° 359° (N) 3,244 6.2 -18.6°
